#timestamp,LO_Frequency,Hit,StdDev 
1579579215.5,286047003.8,P
1579579235.3,286047001.4,N
1579579255.2,286047003.9,N
1579579275.9,286047001.3,N
1579579295.7,286047004.1,N
1579579315.6,286047003.4,N
1579579335.4,286047003.9,N
1579579355.3,286047005.2,Y
1579579375.1,286047002.1,P
1579579376.0,286047002.1,P
1579579395.8,286047002.6,P
1579579415.7,286047004.0,Y
1579579435.5,286047000.9,P
1579579455.3,286047001.1,N
1579579475.2,286047000.4,N
1579579495.0,286047002.1,N
1579579495.9,286047002.1,N
1579579515.8,286047000.2,N
1579579535.6,286046998.3,N
1579579555.4,286046999.2,N
1579579575.3,286046999.4,N
1579579595.1,286046999.1,N
1579579615.9,286047000.8,N
1579579635.7,286047000.1,N
1579579655.5,286046998.4,N
1579579675.4,286046998.7,N
1579579695.2,286046998.4,N
1579579715.0,286046997.0,N
1579579715.9,286046997.0,N
1579579735.8,286047000.8,N
1579579755.6,286047000.1,N
1579579775.5,286047000.5,N
1579579795.3,286046998.5,N
1579579815.1,286047000.1,N
1579579835.9,286047002.7,N
1579579855.7,286047000.5,N
1579579875.5,286046998.1,N
1579579895.4,286047000.5,N
1579579915.2,286047000.5,N
1579579935.0,286046999.7,N
1579579936.0,286046999.7,N
1579579955.8,286047000.5,N
1579579975.6,286047000.7,N
1579579995.5,286047000.6,N
1579580015.3,286047002.7,N
1579580035.1,286047003.5,N
1579580055.9,286047003.3,N
1579580075.7,286047004.2,N
1579580095.6,286047002.9,N
1579580115.4,286047001.4,N
1579580135.2,286047004.3,N
1579580155.1,286047004.1,N
1579580156.0,286047004.1,N
1579580175.8,286047005.7,N
1579580195.6,286047004.1,N
1579580215.5,286047003.3,N
1579580235.3,286047001.9,N
1579580255.2,286047003.1,N
1579580275.9,286047004.3,N
1579580295.7,286047003.5,N
1579580315.6,286047004.3,N
1579580335.4,286047003.1,N
1579580355.2,286047003.0,N
1579580375.1,286047005.6,Y
1579580376.0,286047005.6,P
1579580395.8,286047001.8,N
1579580415.7,286047002.6,N
1579580435.5,286047001.4,N
1579580455.3,286047005.3,Y
1579580475.2,286047002.4,P
1579580495.0,286047004.2,P
1579580495.9,286047004.2,P
1579580515.8,286047003.2,Y
1579580535.6,286046998.5,P
1579580555.4,286047001.1,N
1579580575.3,286047000.8,N
1579580595.1,286047001.2,N
1579580615.8,286047000.3,N
1579580635.7,286047001.0,N
1579580655.5,286046999.8,N
1579580675.4,286046998.6,N
1579580695.2,286046999.3,N
1579580715.0,286046997.0,N
1579580715.9,286046997.0,N
1579580735.8,286046998.5,N
1579580755.6,286046998.1,N
1579580775.5,286047001.2,N
1579580795.3,286046999.3,N
1579580815.1,286046998.3,N
1579580835.9,286046998.5,N
1579580855.7,286047001.2,N
1579580875.5,286047002.1,N
1579580895.4,286047001.3,N
1579580915.2,286047001.4,N
1579580935.0,286047001.3,N
1579580936.0,286047001.3,N
1579580955.8,286047003.8,N
1579580975.6,286047003.8,N
1579580995.5,286047007.1,Y
1579581015.3,286047004.5,P
1579581035.1,286047005.0,N
1579581055.9,286047007.1,P
1579581075.7,286047007.5,Y
1579581095.6,286047002.0,P
1579581115.4,286047001.2,N
1579581135.2,286047000.0,N
1579581155.1,286047002.3,N
1579581156.0,286047002.3,N
1579581175.8,286047002.8,N
1579581195.7,286047001.3,N
1579581215.5,286047001.9,N
1579581235.3,286047001.4,N
1579581255.2,286047004.4,Y
1579581275.0,286047000.7,P
1579581275.9,286047000.7,N
1579581295.7,286046998.5,N
1579581315.6,286046998.5,N
1579581335.4,286046998.2,N
1579581355.3,286047000.6,N
1579581375.1,286047002.2,N
1579581376.0,286047002.2,N
1579581395.8,286047002.4,N
1579581415.7,286047001.6,N
1579581435.5,286047005.8,Y
1579581455.3,286047005.6,P
1579581475.2,286047003.8,N
1579581495.0,286047003.1,N
1579581495.9,286047003.1,N
1579581515.8,286047001.8,N
1579581535.6,286047002.0,N
1579581555.4,286047000.2,N
1579581575.3,286046999.9,N
1579581595.1,286047001.0,N
1579581615.9,286046999.7,N
1579581635.7,286047000.9,N
1579581655.5,286046998.8,N
1579581675.4,286046998.9,N
1579581695.2,286046998.4,N
1579581715.0,286046998.2,N
1579581715.9,286046998.2,N
1579581735.8,286047000.4,N
1579581755.6,286047000.1,N
1579581775.5,286047002.8,N
1579581795.3,286047001.0,N
1579581815.1,286047001.1,N
1579581835.9,286047001.0,N
1579581855.7,286047001.0,N
1579581875.6,286047000.0,N
1579581895.4,286047001.6,N
1579581915.2,286047002.7,N
1579581935.1,286047000.3,N
1579581936.0,286047000.3,N
1579581955.8,286047001.0,N
1579581975.6,286047002.8,N
1579581995.5,286046999.8,N
1579582015.3,286046999.8,N
1579582035.2,286047000.1,N
1579582055.9,286046999.8,N
1579582075.7,286047002.3,N
1579582095.6,286047002.4,N
1579582115.4,286046999.7,N
1579582135.2,286047000.4,N
1579582155.1,286047000.2,N
1579582156.0,286047000.2,N
1579582175.8,286047001.7,N
1579582195.7,286047003.9,Y
1579582215.5,286047001.7,P
1579582235.3,286047001.4,N
1579582255.2,286047001.3,N
1579582275.0,286047004.4,Y
1579582275.9,286047004.4,P
1579582295.8,286047001.6,N
1579582315.6,286047002.6,N
1579582335.4,286047004.2,Y
1579582355.3,286046998.8,P
1579582375.1,286046998.3,N
1579582395.8,286047001.2,N
1579582415.7,286046998.1,N
1579582435.5,286046998.2,N
1579582455.4,286046996.9,N
1579582475.2,286047000.5,N
1579582495.0,286046998.7,N
1579582495.9,286046998.7,N
1579582515.8,286046998.6,N
1579582535.6,286046998.1,N
1579582555.5,286046998.3,N
1579582575.3,286047001.2,N
1579582595.1,286047000.4,N
1579582615.9,286046999.3,N
1579582635.7,286047001.0,N
1579582655.5,286046999.8,N
1579582675.4,286047002.3,N
1579582695.2,286047001.6,N
1579582715.0,286047003.8,N
1579582716.0,286047003.8,N
1579582735.8,286047003.2,N
1579582755.6,286047003.2,N
1579582775.5,286047005.3,N
1579582795.3,286047005.1,N
